Content
SEND FEEDBACK

Daily
Averages
Monthly
Summary
Mexico

COZUMEL, QUINTANA ROO


Home > North America > Mexico > Quintana Roo
Elevation: 15 feet     Latitude: 20 31N     Longitude: 086 56W

WEATHER
 
SELECT A DAY
Number of Records: 124,568;   Date Range: 1/1/95 - 7/23/14
 
SHARE

PRINT THIS DATA

[ ← Previous Day ]
WEATHER ALMANAC - JANUARY 3, 2014
[ Next Day → ]
[ °C ]   °F
Weather ElementAverageHighLow
Temperature71.4 °F78.8 °F (12:40 pm)66.2 °F (11:50 pm)
Dewpoint68.2 °F69.8 °F (7:48 am)66.2 °F (1:48 am)
Humidity89.9 %100 % (3:40 pm)74 % (11:53 am)
Barometer29.99 in30.07 in (8:45 pm)29.92 in (3:40 pm)
Wind Speed10.4 mph18.4 mph (3:40 pm)
Wind Gust26.5 mph (8:45 pm)
Weather ElementAverage
Visibility6.4 mi
Wind DirectionNNE (38.3 °)

Weather ElementTotal
Precipitation---
Cooling Degree Days7.5 (Base 65)
Growing Degree Days22.5 (Base 50)
Averaged from 23 records on January 3, 2014
WEATHER CONDITIONS BREAKOUT
WIND DIRECTION BREAKOUT
WEATHER BY HOUR - JANUARY 3, 2014
[ °C ]   °F
Local TimeTemperatureDewpointHumidityBarometerVisibilityWind DirectionWind SpeedGust SpeedPrecipitationEventsConditions
1:48 AM69.8 °F66.2 °F88 %29.98 in7.0 miCalmScattered Clouds
2:42 AM69.8 °F68.0 °F94 %29.99 in7.0 miCalmScattered Clouds
3:48 AM69.8 °F68.0 °F94 %29.97 in7.0 miCalmScattered Clouds
4:40 AM69.8 °F68.0 °F94 %29.97 in7.0 miNorth (10°)13.8 mphScattered Clouds
5:43 AM69.8 °F68.0 °F94 %29.96 in7.0 miNorth (10°)8.1 mphScattered Clouds
6:45 AM69.8 °F68.0 °F94 %29.99 in7.0 miNNE (20°)9.2 mphScattered Clouds
7:48 AM71.6 °F69.8 °F94 %30.01 in8.0 miNorth (10°)6.9 mphScattered Clouds
8:44 AM75.2 °F68.0 °F78 %30.05 in8.0 miNE (50°)10.4 mphScattered Clouds
9:55 AM77.0 °F69.8 °F78 %30.02 in8.0 miENE (70°)16.1 mphScattered Clouds
10:41 AM77.0 °F69.8 °F78 %30.03 in8.0 miNE (40°)10.4 mphScattered Clouds
11:53 AM77.0 °F68.0 °F74 %29.98 in8.0 miNNE (30°)11.5 mphScattered Clouds
12:40 PM78.8 °F69.8 °F74 %29.98 in8.0 miENE (70°)9.2 mph20.7 mphScattered Clouds
1:45 PM77.0 °F68.0 °F74 %29.96 in8.0 miENE (70°)13.8 mphScattered Clouds
2:40 PM73.4 °F66.2 °F78 %29.99 in4.0 miNNE (30°)11.5 mph23.0 mphRainRain
3:40 PM69.8 °F69.8 °F100 %29.92 in5.0 miNE (50°)18.4 mphRainLight Rain
4:40 PM69.8 °F68.0 °F94 %29.96 in6.0 miNE (40°)11.5 mph23.0 mphOvercast
5:40 PM69.8 °F68.0 °F94 %29.98 in4.0 miNE (40°)11.5 mph23.0 mphRainLight Rain
6:40 PM68.0 °F68.0 °F100 %29.99 in4.0 miNE (40°)11.5 mph23.0 mphRainLight Rain
7:40 PM69.8 °F68.0 °F94 %30.01 in7.0 miNE (50°)17.3 mphOvercast
8:45 PM68.0 °F68.0 °F100 %30.07 in3.0 miEast (80°)13.8 mph26.5 mphRainRain
9:47 PM68.0 °F68.0 °F100 %30.06 in5.0 miENE (60°)15.0 mphRainRain
10:44 PM68.0 °F68.0 °F100 %29.98 in6.0 miNE (50°)9.2 mphRainLight Rain
11:50 PM66.2 °F66.2 °F100 %30.01 in6.0 miENE (60°)9.2 mphRainLight Rain
Hourly data recorded from MMCZ, located miles away from Cozumel, Quintana Roo







STORIES FROM OUR PARTNERS